EW5975 Weather Reports


Display with metric or nautical units.
time (UTC)temp
F
wind
direction
speed
MPH
gust
MPH
rain 1hr
in
rain 24hr
in
rain mn
in
humidity
%
barometer
mb
20260508091057 70 0.0 2.0 0.00 0.00 0.00 54 1013.9
20260508090017 69 0.0 0.0 0.00 0.00 0.00 54 1013.9
20260508085017 68 0.0 0.0 0.00 0.00 0.00 60 1013.8
20260508084017 67 0.0 0.0 0.00 0.00 0.00 64 1013.8
20260508083018 65 0.0 0.0 0.00 0.00 0.00 68 1013.8
20260508082017 64 0.0 0.0 0.00 0.00 0.00 68 1013.7
20260508081017 63 0.0 0.0 0.00 0.00 0.00 69 1013.6
20260508080015 62 0.0 0.0 0.00 0.00 0.00 70 1013.5
20260508075017 61 0.0 0.0 0.00 0.00 0.00 71 1013.4
20260508074017 60 0.0 0.0 0.00 0.00 0.00 73 1013.3
20260508073017 59 0.0 0.0 0.00 0.00 0.00 77 1013.2
20260508072036 59 0.0 0.0 0.00 0.00 0.00 79 1013.2
20260508071018 58 0.0 0.0 0.00 0.00 0.00 79 1013.1
20260508070017 57 0.0 0.0 0.00 0.00 0.00 80 1013.1
20260508065017 56 0.0 0.0 0.00 0.00 0.00 81 1013.1
20260508064017 55 0.0 0.0 0.00 0.00 0.00 84 1013.0
20260508063017 54 0.0 0.0 0.00 0.00 0.00 85 1013.1
20260508062016 54 0.0 0.0 0.00 0.00 0.00 86 1013.1
20260508061036 53 0.0 0.0 0.00 0.00 0.00 86 1013.0
20260508060016 53 0.0 0.0 0.00 0.00 0.00 86 1013.0
20260508055016 52 0.0 0.0 0.00 0.00 0.00 87 1013.0
20260508054016 52 0.0 0.0 0.00 0.00 0.00 86 1012.9
20260508053038 51 0.0 0.0 0.00 0.00 0.00 86 1012.8
20260508052017 51 0.0 0.0 0.00 0.00 0.00 86 1012.8
20260508051029 51 0.0 0.0 0.00 0.00 0.00 86 1012.7
20260508050016 51 0.0 0.0 0.00 0.00 0.00 86 1012.6
20260508045016 51 0.0 0.0 0.00 0.00 0.00 86 1012.6
20260508044017 51 0.0 0.0 0.00 0.00 0.00 86 1012.5
20260508043016 51 0.0 0.0 0.00 0.00 0.00 86 1012.4
20260508042016 51 0.0 0.0 0.00 0.00 0.00 86 1012.4
20260508041016 51 0.0 0.0 0.00 0.00 0.00 86 1012.3
20260508040016 51 0.0 0.0 0.00 0.00 0.00 86 1012.2
20260508035016 51 0.0 0.0 0.00 0.00 0.00 86 1012.4
20260508034016 51 0.0 0.0 0.00 0.00 0.00 86 1012.5
20260508033016 51 0.0 0.0 0.00 0.00 0.00 86 1012.3
20260508032017 51 0.0 0.0 0.00 0.00 0.00 86 1012.2
20260508031016 51 0.0 0.0 0.00 0.00 0.00 86 1012.2
20260508030016 51 0.0 0.0 0.00 0.00 0.00 86 1012.2
20260508025016 51 0.0 0.0 0.00 0.00 0.00 86 1012.2
20260508024016 51 0.0 0.0 0.00 0.00 0.00 86 1012.2
20260508023016 51 0.0 0.0 0.00 0.00 0.00 86 1012.2
20260508022016 51 0.0 0.0 0.00 0.00 0.00 86 1012.4
20260508021017 51 0.0 0.0 0.00 0.00 0.00 85 1012.4
20260508020036 51 0.0 0.0 0.00 0.00 0.00 85 1012.4
20260508015016 51 0.0 0.0 0.00 0.00 0.00 85 1012.4
20260508014016 51 0.0 0.0 0.00 0.00 0.00 85 1012.5
20260508013016 51 0.0 0.0 0.00 0.00 0.00 85 1012.6
20260508012016 52 0.0 0.0 0.00 0.00 0.00 85 1012.7
20260508011036 52 0.0 0.0 0.00 0.00 0.00 85 1012.8
20260508010036 52 0.0 0.0 0.00 0.00 0.00 85 1012.8
20260508005016 52 0.0 0.0 0.00 0.00 0.00 85 1012.9
20260508004016 52 0.0 0.0 0.00 0.00 0.00 85 1012.9
20260508003036 52 0.0 0.0 0.00 0.00 0.00 85 1013.0
20260508002016 52 0.0 0.0 0.00 0.00 0.00 85 1013.1
20260508001016 52 0.0 0.0 0.00 0.00 0.00 85 1013.1
20260508000016 52 0.0 0.0 0.00 0.00 0.00 85 1013.2
20260507235016 52 0.0 0.0 0.00 0.00 0.00 85 1013.2
20260507234016 52 0.0 0.0 0.00 0.00 0.00 85 1013.4
20260507233016 52 0.0 0.0 0.00 0.00 0.00 85 1013.6
20260507232015 52 0.0 0.0 0.00 0.00 0.00 85 1013.7
20260507231016 52 0.0 0.0 0.00 0.00 0.00 84 1013.7
20260507230015 53 0.0 0.0 0.00 0.00 0.00 84 1013.7
20260507225015 53 0.0 0.0 0.00 0.00 0.00 84 1013.7
20260507224018 53 0.0 0.0 0.00 0.00 0.00 84 1013.8
20260507223017 53 0.0 0.0 0.00 0.00 0.00 84 1013.7
20260507222017 53 0.0 0.0 0.00 0.00 0.00 84 1013.8
20260507221017 53 0.0 0.0 0.00 0.00 0.00 83 1013.8
20260507220017 53 0.0 0.0 0.00 0.00 0.00 83 1013.8
20260507215017 53 0.0 0.0 0.00 0.00 0.00 83 1013.6
20260507214019 54 0.0 0.0 0.00 0.00 0.00 83 1013.6
20260507213037 54 0.0 0.0 0.00 0.00 0.00 83 1013.6
20260507212017 54 0.0 0.0 0.00 0.00 0.00 83 1013.5
20260507211017 54 0.0 1.0 0.00 0.00 0.00 83 1013.6
20260507210017 54 0.0 0.0 0.00 0.00 0.00 82 1013.4
20260507205017 55 0.0 0.0 0.00 0.00 0.00 82 1013.4
20260507204017 55 0.0 0.0 0.00 0.00 0.00 82 1013.4
20260507203017 55 0.0 0.0 0.00 0.00 0.00 82 1013.3
20260507202037 55 0.0 1.0 0.00 0.00 0.00 81 1013.2
20260507201017 55 0.0 1.0 0.00 0.00 0.00 81 1013.1
20260507200018 56 0.0 0.0 0.00 0.00 0.00 81 1013.0
20260507195017 56 0.0 0.0 0.00 0.00 0.00 81 1013.0
20260507194017 56 0.0 0.0 0.00 0.00 0.00 81 1013.1
20260507193018 57 0.0 0.0 0.00 0.00 0.00 80 1013.0
20260507192017 57 0.0 0.0 0.00 0.00 0.00 79 1012.8
20260507191038 57 0.0 0.0 0.00 0.00 0.00 78 1012.7
20260507190017 58 0.0 0.0 0.00 0.00 0.00 78 1012.5
20260507185017 58 0.0 0.0 0.00 0.00 0.00 77 1012.2
20260507184017 59 0.0 0.0 0.00 0.00 0.00 76 1012.3
20260507183017 59 0.0 0.0 0.00 0.00 0.00 76 1012.1
20260507182017 59 0.0 1.0 0.00 0.00 0.00 76 1012.0
20260507181017 60 0.0 0.0 0.00 0.00 0.00 75 1012.0
20260507180016 60 0.0 1.0 0.00 0.00 0.00 75 1012.0
20260507175017 61 0.0 0.0 0.00 0.00 0.00 73 1012.0
20260507174018 62 0.0 1.0 0.00 0.00 0.00 71 1011.9
20260507173037 63 0.0 0.0 0.00 0.00 0.00 68 1011.9
20260507172017 64 0.0 0.0 0.00 0.00 0.00 67 1011.9
20260507171037 65 0.0 2.0 0.00 0.00 0.00 66 1012.0
20260507170017 65 225 1.0 3.0 0.00 0.00 0.00 64 1012.0
20260507165017 65 180 1.0 3.0 0.00 0.00 0.00 65 1011.9
20260507164017 65 113 1.0 3.0 0.00 0.00 0.00 63 1011.9
20260507163016 65 135 1.0 4.0 0.00 0.00 0.00 65 1011.9
20260507162017 65 113 1.0 3.0 0.00 0.00 0.00 65 1011.9
20260507161037 65 135 1.0 2.0 0.00 0.00 0.00 63 1011.8
20260507160016 65 113 1.0 2.0 0.00 0.00 0.00 64 1011.9
20260507155018 65 0.0 2.0 0.00 0.00 0.00 63 1011.9
20260507154037 66 135 1.0 3.0 0.00 0.00 0.00 62 1011.7
20260507153018 66 158 1.0 3.0 0.00 0.00 0.00 61 1011.5
20260507152016 66 113 1.0 3.0 0.00 0.00 0.00 61 1011.6
20260507151016 66 135 1.0 4.0 0.00 0.00 0.00 61 1011.5
20260507150016 66 113 1.0 3.0 0.00 0.00 0.00 64 1011.6
20260507145016 65 113 1.0 3.0 0.00 0.00 0.00 64 1011.7
20260507144016 65 135 1.0 3.0 0.00 0.00 0.00 64 1011.8
20260507143017 66 135 1.0 3.0 0.00 0.00 0.00 63 1011.8
20260507142016 66 135 1.0 3.0 0.00 0.00 0.00 63 1011.9
20260507141016 66 113 1.0 5.0 0.00 0.00 0.00 62 1011.9
20260507140016 66 135 2.0 5.0 0.00 0.00 0.00 64 1011.9
20260507135016 66 135 1.0 4.0 0.00 0.00 0.00 62 1012.0
20260507134016 66 113 1.0 3.0 0.00 0.00 0.00 61 1012.0
20260507133016 67 135 1.0 3.0 0.00 0.00 0.00 59 1012.2
20260507132016 67 113 1.0 5.0 0.00 0.00 0.00 57 1012.3
20260507131016 67 113 2.0 4.0 0.00 0.00 0.00 55 1012.3
20260507130016 68 113 1.0 5.0 0.00 0.00 0.00 55 1012.3
20260507125016 68 113 3.0 7.0 0.00 0.00 0.00 53 1012.3
20260507124016 69 135 1.0 3.0 0.00 0.00 0.00 56 1012.2
20260507123016 68 113 2.0 8.0 0.00 0.00 0.00 55 1012.2
20260507122016 67 203 1.0 3.0 0.00 0.00 0.00 57 1012.2
20260507121016 68 113 2.0 7.0 0.00 0.00 0.00 58 1012.1
20260507120016 67 113 2.0 5.0 0.00 0.00 0.00 60 1012.0
20260507115016 67 90 2.0 4.0 0.00 0.00 0.00 59 1011.9
20260507114015 67 113 2.0 4.0 0.00 0.00 0.00 60 1011.8
20260507113056 67 113 2.0 7.0 0.00 0.00 0.00 60 1011.9
20260507112016 66 113 2.0 7.0 0.00 0.00 0.00 63 1012.0
20260507111015 67 113 1.0 7.0 0.00 0.00 0.00 61 1012.1
20260507110036 68 113 1.0 6.0 0.00 0.00 0.00 60 1012.0
20260507105015 69 113 2.0 7.0 0.00 0.00 0.00 59 1012.2
20260507104035 69 113 2.0 7.0 0.00 0.00 0.00 59 1012.3
20260507103016 69 225 3.0 7.0 0.00 0.00 0.00 58 1012.4
20260507102015 68 113 2.0 7.0 0.00 0.00 0.00 59 1012.4
20260507101035 68 225 3.0 6.0 0.00 0.00 0.00 61 1012.4
20260507100016 68 113 2.0 6.0 0.00 0.00 0.00 62 1012.4
20260507095016 67 113 2.0 4.0 0.00 0.00 0.00 63 1012.5
20260507094017 67 90 1.0 5.0 0.00 0.00 0.00 61 1012.5
20260507093016 68 90 2.0 5.0 0.00 0.00 0.00 60 1012.5
20260507092017 68 113 2.0 4.0 0.00 0.00 0.00 56 1012.3